CHINASAT 9A (ZX 9A) (42763 NORAD) Tracking and Keplerian Element Data

This shows tracking and keplerian element data for the satellite.

Feedback or suggestion? Click here.




ElementValue
Catalog42763
NameCHINASAT 9A (ZX 9A)
Epoch Orbit616
Epoch Day349.25248337
Epoch Year2018
RAAN106.8544
Inclination0.0389
Eccentricity0.0001498
Argument of Perigee355.1046
Mean Anonmoly174.2831
Mean Motion1.00271464
Decay Rate-3.01E-06
L11 42763U 17035A 18349.25248337 -.00000301 00000-0 00000+0 0 9991
L22 42763 0.0389 106.8544 0001498 355.1046 174.2831 1.00271464 6162

Live tracking and technical data element details for CHINASAT 9A (ZX 9A) (NORAD 42763). CHINASAT 9A (ZX 9A) can be tracked NOW for your location showing map with azimuth and elevation plus other details from your city location.

Track the satellite on the map from your city or location and see movement details for azimuth, elevation, latitude, longitude, range, height, and movement on the map or in text.







IsCatalogInMostPopularTable: catalog: 42763, numindb: 120
Update: records affected: 1



GetName: 42763 CHINASAT 9A (ZX 9A)

Hit Count: updated at: Sat, 15 Dec 2018 14:26:28 GMT